Regional Weather Roundup
Issued by NWS

Home | Current Version | Previous Version | Text Only | Print | Product List | Glossary On
Versions: 1 2 3 4 5 6 7 8 9 10 11 12 13 14 15 16 17 18 19 20 21 22 23 24 25 26 27 28 29 30 31 32 33 34 35 36 37 38 39 40 41 42 43 44 45 46 47 48 49 50
000
ASUS43 KTOP 030959
RWRKS

WEATHER ROUNDUP FOR KANSAS
NATIONAL WEATHER SERVICE GOODLAND KS
500 AM CDT MON AUG 03 2015

NOTE:  "FAIR" INDICATES FEW OR NO CLOUDS BELOW 12,000 FEET WITH NO
SIGNIFICANT WEATHER AND/OR OBSTRUCTIONS TO VISIBILITY.

KSZ001>006-013>018-027>032-041>047-031100-
NORTHWEST KANSAS

CITY           SKY/WX    TMP DP  RH WIND       PRES   REMARKS
GOODLAND       PTCLDY    65  58  78 W7        30.00R
HAYS           CLEAR     70  61  73 CALM      29.92R
HILL CITY      CLEAR     66  62  87 N5        29.94R
RUSSELL        CLEAR     70  67  90 S6        29.91R
$$

KSZ061>065-074>080-084>089-031100-
SOUTHWEST KANSAS

CITY           SKY/WX    TMP DP  RH WIND       PRES   REMARKS
DODGE CITY     PTCLDY    68  65  90 S6        29.94S
ELKHART          N/A     69  62  78 W6          N/A
GARDEN CITY    PTCLDY    68  64  87 SE5       29.95S
GREAT BEND     CLEAR     70  63  78 SE5       29.92R
LIBERAL        MOCLDY    70  63  78 S7        29.96S
PRATT          CLEAR     70  64  83 CALM      29.93S
$$

KSZ066>073-081>083-090>101-031100-
SOUTHEAST KANSAS

CITY           SKY/WX    TMP DP  RH WIND       PRES   REMARKS
CHANUTE        CLEAR     68  65  90 S6        29.93F
COFFEYVILLE    CLEAR     67  65  93 NE6       29.92R
HUTCHINSON     CLEAR     70  66  87 SE3       29.92R
MEDICINE LODGE   N/A     71  68  90 CALM      29.91R
NEWTON         CLEAR     70  63  78 S6        29.95R
PARSONS        CLEAR     70  67  90 NE3       29.94R
WICHITA INTL   PTCLDY    71  66  84 S6        29.91S
WICHITA JABRA  CLEAR     72  66  81 S3        29.92R
WINFIELD       CLEAR     70  66  87 SE3       29.93R
$$

KSZ007>012-019>026-033>040-048>060-102>105-031100-
NORTHEAST KANSAS

CITY           SKY/WX    TMP DP  RH WIND       PRES   REMARKS
CONCORDIA      PTCLDY    72  68  87 W6        29.90R
EMPORIA        CLEAR     70  65  84 S9        29.92S
LAWRENCE       CLEAR     70  67  90 NE5       29.91S
MANHATTAN      CLEAR     73  68  84 W5        29.90R
OLATHE IND     CLEAR     71  66  84 CALM      29.92F
OLATHE EXE     CLEAR     71  66  84 N9        29.92S
SALINA         CLEAR     71  67  87 S5        29.90R
TOPEKA BILLARD CLEAR     73  69  87 SE3       29.90R
TOPEKA FORBES  CLEAR     72  67  84 CALM      29.91R
$$


USA.gov is the U.S. government's official web portal to all federal, state and local government web resources and services.